Flag for United Kingdom Weather past 2 weeks in Bournemouth, England, United Kingdom

Now
52 °F

Low clouds.


Feels Like: 46 °F
Forecast: 43 / 52 °F
Wind: 21 mph from Southwest

Location: Bournemouth Airport

Current Time: Mar 30, 2015 at 9:05:53 PM

Latest Report: Mar 30, 2015 at 8:20 PM


Visibility: 5 mi

Pressure: 29.68 "Hg

Humidity: 94%

Dew point: 50 °F

Location of BournemouthLocation

Historic Weather in Bournemouth — Graph

°F

Bournemouth temperature yesterday

Maximum temperature yesterday: 57 °F (at 2:50 PM)
Minimum temperature yesterday: 50 °F (at 5:20 AM)
Average temperature yesterday: 53 °F

Past Weeks' High & Low Weather Summary

 TemperatureHumidityPressure
High57 °F (Mar 26, 3:20 PM)100% (Mar 16, 9:50 PM)30.54 "Hg (Mar 16, 9:50 PM)
Low28 °F (Mar 25, 2:20 AM)41% (Mar 26, 5:50 PM)29.50 "Hg (Mar 29, 12:50 PM)
Average45 °F77%30.09 "Hg
* Reported Mar 15 6:20 PM — Mar 30 7:50 PM, Bournemouth, Weather by CustomWeather, © 2015

Note: Actual official high and low records may vary slightly from our data, if they occured in-between our weather recording intervals... More about our weather records

Advertising

Bournemouth weather history for previous 24 hours

 ConditionsComfort  
Time TempWeatherWind HumidityBarometerVisibility
7:50 PM
Mon, Mar 30
50 °FDrizzle. Low clouds.21 mph100%29.71 "Hg5 mi
7:20 PM50 °FDrizzle. Fog.17 mph94%29.74 "Hg3 mi
6:50 PM50 °FDrizzle. Fog.16 mph94%29.77 "Hg1 mi
6:20 PM50 °FPartly sunny.15 mph88%29.80 "HgN/A
5:20 PM50 °FPartly sunny.18 mph82%29.83 "HgN/A
4:50 PM50 °FPartly sunny.18 mph82%29.83 "HgN/A
4:20 PM50 °FBroken clouds.14 mph76%29.86 "HgN/A
3:50 PM50 °FBroken clouds.16 mph71%29.89 "HgN/A
3:20 PM50 °FScattered clouds.16 mph71%29.92 "HgN/A
2:50 PM52 °FScattered clouds.16 mph62%29.89 "HgN/A
2:20 PM52 °FScattered clouds.16 mph58%29.92 "HgN/A
1:50 PM52 °FScattered clouds.15 mph54%29.92 "HgN/A
1:20 PM52 °FScattered clouds.14 mph54%29.92 "HgN/A
12:50 PM50 °FPassing clouds.14 mph54%29.92 "HgN/A
12:20 PM50 °FPassing clouds.12 mph50%29.92 "HgN/A
11:50 AM50 °FPassing clouds.16 mph47%29.95 "HgN/A
11:20 AM50 °FScattered clouds.16 mph54%29.92 "HgN/A
10:50 AM52 °FScattered clouds.18 mph50%29.92 "HgN/A
10:20 AM50 °FPassing clouds.14 mph58%29.92 "HgN/A
9:50 AM50 °FPassing clouds.15 mph58%29.89 "HgN/A
9:20 AM48 °FPassing clouds.16 mph66%29.89 "HgN/A
8:50 AM46 °FScattered clouds.8 mph76%29.89 "HgN/A
8:20 AM45 °FScattered clouds.9 mph76%29.86 "HgN/A
7:50 AM41 °FPassing clouds.9 mph87%29.86 "HgN/A
7:20 AM41 °FPassing clouds.9 mph81%29.83 "HgN/A
6:50 AM41 °FClear.8 mph81%29.80 "Hg10 mi
6:20 AM41 °FClear.7 mph81%29.80 "Hg10 mi
5:50 AM43 °FClear.10 mph81%29.77 "Hg10 mi
5:20 AM43 °FClear.13 mph81%29.77 "Hg10 mi
10:20 PM
Sun, Mar 29
50 °FClear.17 mph71%29.62 "Hg10 mi
9:50 PM50 °FClear.18 mph76%29.62 "Hg10 mi
9:20 PM50 °FClear.21 mph71%29.59 "Hg10 mi
Weather by CustomWeather, © 2015

See weather overviewHow to use our weather pages